Date,TemperatureHighF,TemperatureAvgF,TemperatureLowF,DewpointHighF,DewpointAvgF,DewpointLowF,HumidityHigh,HumidityAvg,HumidityLow,PressureMaxIn,PressureMinIn,WindSpeedMaxMPH,WindSpeedAvgMPH,GustSpeedMaxMPH,PrecipitationSumIn
2013-7-1,79,69,54,-100,-100,-100,0,0,100,0.00,40.00,0,-999,0,0.00
2013-7-2,79,68,57,-100,-100,-100,0,0,100,0.00,40.00,0,-999,0,0.00
2013-7-3,81,66,57,-100,-100,-100,0,0,100,0.00,40.00,0,-999,0,0.00
2013-7-4,84,72,61,-100,-100,-100,0,0,100,0.00,40.00,0,-999,0,0.00
2013-7-5,84,74,66,-100,-100,-100,0,0,100,0.00,40.00,0,-999,0,0.00
2013-7-6,84,73,68,-100,-100,-100,0,0,100,0.00,40.00,0,-999,0,0.00
2013-7-7,90,77,68,-100,-100,-100,0,0,100,0.00,40.00,0,-999,0,0.00
2013-7-8,86,72,64,-100,-100,-100,0,0,100,0.00,40.00,0,-999,0,0.00
2013-7-9,84,73,63,-100,-100,-100,0,0,100,0.00,40.00,0,-999,0,0.00
2013-7-10,77,65,57,-100,-100,-100,0,0,100,0.00,40.00,0,-999,0,0.00
2013-7-11,81,70,55,-100,-100,-100,0,0,100,0.00,40.00,0,-999,0,0.00
2013-7-12,84,74,64,-100,-100,-100,0,0,100,0.00,40.00,0,-999,0,0.00
2013-7-13,77,72,70,-100,-100,-100,0,0,100,0.00,40.00,0,-999,0,0.00
2013-7-14,82,71,66,-100,-100,-100,0,0,100,0.00,40.00,0,-999,0,0.00
2013-7-15,82,74,63,-100,-100,-100,0,0,100,0.00,40.00,0,-999,0,0.00
2013-7-16,88,78,68,-100,-100,-100,0,0,100,0.00,40.00,0,-999,0,0.00
2013-7-17,88,77,66,-100,-100,-100,0,0,100,0.00,40.00,0,-999,0,0.00
2013-7-18,88,83,72,-100,-100,-100,0,0,100,0.00,40.00,0,-999,0,0.00
2013-7-19,79,74,64,-100,-100,-100,0,0,100,0.00,40.00,0,-999,0,0.00
2013-7-20,81,67,59,-100,-100,-100,0,0,100,0.00,40.00,0,-999,0,0.00
2013-7-21,82,72,66,-100,-100,-100,0,0,100,0.00,40.00,0,-999,0,0.00
2013-7-22,86,73,64,-100,-100,-100,0,0,100,0.00,40.00,0,-999,0,0.00
2013-7-23,68,60,54,-100,-100,-100,0,0,100,0.00,40.00,0,-999,0,0.00
2013-7-24,73,62,55,-100,-100,-100,0,0,100,0.00,40.00,0,-999,0,0.00
2013-7-25,82,66,59,-100,-100,-100,0,0,100,0.00,40.00,0,-999,0,0.00
2013-7-26,64,60,54,-100,-100,-100,0,0,100,0.00,40.00,0,-999,0,0.00
2013-7-27,64,55,46,-100,-100,-100,0,0,100,0.00,40.00,0,-999,0,0.00
2013-7-28,70,57,41,-100,-100,-100,0,0,100,0.00,40.00,0,-999,0,0.00
2013-7-29,72,62,46,-100,-100,-100,0,0,100,0.00,40.00,0,-999,0,0.00
2013-7-30,68,65,61,-100,-100,-100,0,0,100,0.00,40.00,0,-999,0,0.00
2013-7-31,77,66,55,-100,-100,-100,0,0,100,0.00,40.00,0,-999,0,0.00